Weather History for South Lake Tahoe, CA

Change the Weather History Date:

Wednesday, February 20, 2013

  Actual Average Record
Temperature  
Mean Temperature 23 °F 32 °F  
Max Temperature 36 °F 45 °F 61 °F (1982)
Min Temperature 10 °F 18 °F -10 °F (1990)
Degree Days  
Heating Degree Days 42 34  
Month to date heating degree days 680 692  
Since 1 July heating degree days 4751 4974  
Cooling Degree Days 0 0  
Month to date cooling degree days 0 0  
Year to date cooling degree days 0 0  
Moisture  
Dew Point 14 °F    
Average Humidity 60    
Maximum Humidity 88    
Minimum Humidity 32    
Precipitation  
Precipitation 0.02 in - 2.67 in (1993)
Month to date precipitation 0.07  
Year to date precipitation 0.78  
Sea Level Pressure  
Sea Level Pressure 29.80 in    
Wind  
Wind Speed 2 mph (NNE)    
Max Wind Speed 10 mph    
Max Gust Speed 20 mph    
Visibility 7 miles    
Events Snow    
T = Trace of Precipitation, MM = Missing Value Source: NWS Daily Summary

Daily Weather History Graph

Daily Weather History Graph

Search for Another Location

Airport:

Trip Planner

Search our weather history database for the weather conditions in past years. The results will help you decide how hot, cold, wet, or windy it might be!

Date:

Astronomy

Feb. 20, 2013 Rise Set
Actual Time 6:44 AM PST 5:43 PM PST
Civil Twilight 6:17 AM PST 6:10 PM PST
Nautical Twilight 5:46 AM PST 6:41 PM PST
Astronomical Twilight 5:15 AM PST 7:12 PM PST
Moon 1:10 PM PST 3:06 AM PST
Length of Visible Light 11h 53m
Length of Day
10h 59m
Waxing Gibbous, 77% of the Moon is Illuminated
Feb 20
Waxing Gibbous
Feb 25
Full
Mar 4
Last Quarter
Mar 11
New
Mar 19
First Quarter

Hourly Weather History & Observations

Time (PST) Temp. Windchill Dew Point Humidity Pressure Visibility Wind Dir Wind Speed Gust Speed Precip Events Conditions
12:07 AM 21.2 °F - 17.6 °F 86% 29.62 in 1.8 mi Calm Calm - 0.00 in Snow Light Snow
12:21 AM 21.2 °F - 17.6 °F 86% 29.63 in 0.8 mi Calm Calm - 0.01 in Snow Light Snow
12:43 AM 23.0 °F - 17.6 °F 80% 29.64 in 2.0 mi Calm Calm - 0.01 in Snow Light Snow
12:48 AM 23.0 °F - 17.6 °F 80% 29.64 in 3.0 mi Calm Calm - 0.01 in Snow Light Snow
12:53 AM 23.0 °F - 19.0 °F 85% 29.67 in 4.0 mi Calm Calm - 0.01 in Snow Light Snow
1:00 AM 23.0 °F - 19.4 °F 86% 29.65 in 7.0 mi Calm Calm - 0.00 in   Overcast
1:13 AM 21.2 °F - 17.6 °F 86% 29.65 in 5.0 mi Calm Calm - 0.00 in Snow Light Snow
1:25 AM 23.0 °F - 17.6 °F 80% 29.66 in 3.0 mi Calm Calm - 0.00 in Snow Light Snow
1:29 AM 21.2 °F - 17.6 °F 86% 29.66 in 1.8 mi Calm Calm - 0.00 in Snow Light Snow
1:53 AM 25.0 °F 18.1 °F 19.9 °F 81% 29.70 in 3.0 mi North 5.8 mph - 0.00 in Snow Light Snow
1:56 AM 24.8 °F 15.3 °F 19.4 °F 80% 29.67 in 5.0 mi NNE 9.2 mph - 0.00 in Snow Light Snow
2:53 AM 25.0 °F 19.3 °F 17.1 °F 72% 29.73 in 10.0 mi Variable 4.6 mph - 0.00 in   Overcast
4:53 AM 14.0 °F - 10.0 °F 84% 29.83 in 10.0 mi Calm Calm - N/A   Partly Cloudy
5:53 AM 23.0 °F 13.1 °F 14.0 °F 68% 29.82 in 10.0 mi NNE 9.2 mph - N/A   Partly Cloudy
6:53 AM 12.9 °F - 8.1 °F 81% 29.91 in 10.0 mi Calm Calm - N/A   Clear
8:53 AM 26.1 °F 18.4 °F 12.9 °F 58% 29.91 in 10.0 mi NNE 6.9 mph - N/A   Clear
9:53 AM 28.9 °F 19.8 °F 12.0 °F 49% 29.91 in 10.0 mi North 10.4 mph 18.4 mph N/A   Clear
10:53 AM 30.9 °F 22.2 °F 9.0 °F 40% 29.91 in 10.0 mi NE 10.4 mph - N/A   Clear
11:53 AM 33.1 °F 24.9 °F 8.1 °F 35% 29.88 in 10.0 mi NNE 10.4 mph - N/A   Clear
12:53 PM 34.0 °F 26.6 °F 6.1 °F 31% 29.86 in 10.0 mi NNE 9.2 mph 19.6 mph 0.01 in   Clear
1:53 PM 36.0 °F - 10.0 °F 34% 29.83 in 10.0 mi Calm Calm - N/A   Clear
2:53 PM 35.1 °F 28.6 °F 10.0 °F 35% 29.84 in 10.0 mi NE 8.1 mph - N/A   Clear
3:53 PM 35.1 °F 30.1 °F 9.0 °F 34% 29.87 in 10.0 mi NE 5.8 mph - N/A   Clear
5:53 PM 28.0 °F - 12.9 °F 53% 29.91 in 5.0 mi Calm Calm - N/A   Haze
6:53 PM 27.0 °F 23.0 °F 12.0 °F 53% 29.98 in 7.0 mi South 3.5 mph - N/A   Partly Cloudy
7:53 PM 25.0 °F - 14.0 °F 63% 30.01 in 9.0 mi Calm Calm - N/A   Clear
8:53 PM 23.0 °F - 15.1 °F 72% 29.95 in 10.0 mi Calm Calm - N/A   Clear
9:53 PM 21.9 °F - 15.1 °F 75% 29.95 in 10.0 mi Calm Calm - N/A   Clear
11:53 PM 19.0 °F - 12.9 °F 77% 29.93 in 10.0 mi Calm Calm - N/A   Clear